[[{"header":{"parameterUnit":"m.s-1","parameterCategory":1,"la1":30.2992,"la2":30.254,"lo1":-89.0895,"lo2":-89.0443,"dy":0.0025,"dx":0.0025,"nx":19,"ny":19,"refTime":"2026-03-22T09:00:00:Z","depth":0,"parameterNumber":2,"parameterNumberName":"U-component_of_WINDS"},"data":[0,0,0,1.1934,1.1935,1.2014,1.2015,1.2115,1.2115,0,0,0,0,0,0,0,0,0,0,0,1.1908,1.1908,1.1934,1.1935,1.2014,1.2015,1.2114,1.2115,0,0,0,0,0,0,0,0,0,0,0,1.1907,1.1908,1.1909,1.1936,1.2014,1.2015,1.2114,1.2055,0,0,0,0,0,0,0,0,0,0,1.1979,1.1952,1.1908,1.1909,1.1936,1.2014,1.2015,1.2053,1.2059,1.2078,0,1.2092,0,1.2105,1.2122,1.2122,0,0,0,1.1938,1.1946,1.197,1.1909,1.1937,1.2014,1.1979,1.2056,1.2064,1.2086,1.2093,1.2097,1.2107,1.2122,1.2123,1.2221,1.2222,0,0,1.1933,1.1921,1.1965,1.1975,1.196,1.1977,1.1982,1.2061,1.2068,1.2094,1.21,1.2109,1.2123,1.2124,1.2221,1.2221,0,0,0,1.1919,1.1917,1.1939,1.1971,1.1985,1.1979,1.1985,1.2065,1.2073,1.2101,1.211,1.2124,1.2125,1.222,1.2221,1.2226,0,0,0,1.1917,1.1909,1.1937,1.193,1.1983,1.2025,1.1987,1.2067,1.2077,1.2109,1.2124,1.2126,1.222,1.2221,1.2225,1.2231,0,0,0,1.1903,1.1908,1.1918,1.1929,1.1963,1.2024,1.2037,1.207,1.2082,1.2122,1.2126,1.222,1.2221,1.2225,1.223,1.2255,0,0,0,1.1886,1.1921,1.1918,1.1961,1.1962,1.2026,1.2037,1.2085,1.212,1.2124,1.222,1.2221,1.2224,1.2229,1.2254,1.2274,1.228,0,0,1.1923,1.1925,1.1951,1.1951,1.2013,1.2015,1.2079,1.2123,1.2139,1.2194,1.2196,1.2226,1.223,1.2254,1.2322,1.2327,0,0,0,1.1959,1.1978,1.1997,1.203,1.2064,1.2096,1.2132,1.2149,1.2196,1.2164,1.2242,1.2244,1.2259,1.227,1.2274,1.2289,1.2225,1.2225,1.2225,1.1992,1.2011,1.2058,1.2087,1.2119,1.2158,1.2186,1.2216,1.2225,1.2244,1.226,1.2299,1.231,1.2314,1.2329,1.2272,1.2272,1.2272,1.2272,1.2049,1.208,1.2094,1.2143,1.2164,1.2207,1.2247,1.2253,1.2297,1.2287,1.2301,1.2289,1.2319,1.2333,1.2272,1.2272,1.2272,1.2272,1.2272,1.2074,1.2092,1.2113,1.2164,1.2203,1.2232,1.2275,1.2293,1.231,1.2324,1.2345,1.2345,1.2348,1.2333,1.2333,1.2333,1.2333,1.2333,1.2333,1.2091,1.2115,1.2147,1.219,1.2215,1.2251,1.2292,1.2318,1.2352,1.2362,1.2362,1.2371,1.2317,1.2304,1.2335,1.2335,1.2335,1.2334,1.2334,1.2143,1.2135,1.2186,1.2211,1.2264,1.2303,1.2326,1.2378,1.2402,1.2424,1.2431,1.2388,1.2391,1.2388,1.2377,1.2425,1.2425,1.2425,1.2425,1.2164,1.2168,1.2226,1.2266,1.2307,1.2334,1.2395,1.2429,1.2464,1.2481,1.2477,1.2464,1.2459,1.2466,1.246,1.2451,1.2517,1.2517,1.2517,1.2198,1.2207,1.2254,1.2287,1.2331,1.2369,1.2428,1.2475,1.2513,1.2521,1.2495,1.2491,1.2471,1.2463,1.2469,1.2461,1.2443,0,0]},{"header":{"parameterUnit":"m.s-1","parameterCategory":1,"la1":30.2992,"la2":30.254,"lo1":-89.0895,"lo2":-89.0443,"dy":0.0025,"dx":0.0025,"nx":19,"ny":19,"refTime":"2026-03-22T09:00:00:Z","depth":0,"parameterNumber":3,"parameterNumberName":"V-component_of_WINDS"},"data":[0,0,0,-1.7089,-1.7089,-1.7096,-1.7096,-1.7101,-1.7101,0,0,0,0,0,0,0,0,0,0,0,-1.7086,-1.7086,-1.7089,-1.7089,-1.7096,-1.7096,-1.7101,-1.7101,0,0,0,0,0,0,0,0,0,0,0,-1.7086,-1.7086,-1.7086,-1.7089,-1.7096,-1.7096,-1.7101,-1.7097,0,0,0,0,0,0,0,0,0,0,-1.7091,-1.7086,-1.7086,-1.7086,-1.7089,-1.7096,-1.7096,-1.7097,-1.7097,-1.7096,0,-1.7096,0,-1.7098,-1.7101,-1.7101,0,0,0,-1.709,-1.7086,-1.7089,-1.7086,-1.709,-1.7096,-1.7093,-1.7097,-1.7097,-1.7097,-1.7096,-1.7096,-1.7099,-1.7101,-1.7101,-1.7096,-1.7096,0,0,-1.709,-1.7086,-1.7089,-1.709,-1.7089,-1.7093,-1.7093,-1.7097,-1.7096,-1.7096,-1.7096,-1.7099,-1.7101,-1.7101,-1.7096,-1.7096,0,0,0,-1.7088,-1.7085,-1.7089,-1.7089,-1.7091,-1.7093,-1.7094,-1.7095,-1.7097,-1.7096,-1.7099,-1.7101,-1.7101,-1.7096,-1.7096,-1.709,0,0,0,-1.7088,-1.7084,-1.7089,-1.7086,-1.7091,-1.7093,-1.7092,-1.7097,-1.7097,-1.7099,-1.7101,-1.7101,-1.7097,-1.7096,-1.709,-1.7086,0,0,0,-1.7086,-1.7084,-1.7085,-1.7086,-1.7089,-1.7093,-1.7095,-1.7097,-1.7099,-1.7101,-1.7101,-1.7097,-1.7096,-1.709,-1.7087,-1.7084,0,0,0,-1.7082,-1.7077,-1.7085,-1.7081,-1.7089,-1.709,-1.7095,-1.7096,-1.7097,-1.7101,-1.7097,-1.7096,-1.709,-1.7087,-1.7085,-1.7081,-1.7079,0,0,-1.7074,-1.7076,-1.7075,-1.7081,-1.708,-1.7089,-1.7087,-1.7091,-1.7095,-1.7095,-1.7095,-1.709,-1.7087,-1.7084,-1.7072,-1.707,0,0,0,-1.7071,-1.7069,-1.707,-1.7072,-1.7076,-1.708,-1.7085,-1.7087,-1.7088,-1.7095,-1.7089,-1.7087,-1.7085,-1.7084,-1.7083,-1.7081,-1.7096,-1.7096,-1.7096,-1.7052,-1.7059,-1.7057,-1.7064,-1.7066,-1.7073,-1.7074,-1.7078,-1.7082,-1.7081,-1.7081,-1.7072,-1.707,-1.7069,-1.7068,-1.708,-1.708,-1.708,-1.708,-1.7041,-1.704,-1.7049,-1.705,-1.7056,-1.7057,-1.7063,-1.7067,-1.7068,-1.7073,-1.7072,-1.7075,-1.7068,-1.7067,-1.7079,-1.7079,-1.7079,-1.7079,-1.7079,-1.7029,-1.703,-1.7033,-1.7038,-1.704,-1.7048,-1.7049,-1.7055,-1.706,-1.7059,-1.706,-1.706,-1.706,-1.706,-1.706,-1.706,-1.706,-1.706,-1.706,-1.7014,-1.7019,-1.702,-1.7026,-1.7028,-1.7033,-1.7041,-1.7043,-1.7047,-1.7051,-1.7051,-1.7056,-1.7066,-1.7068,-1.7059,-1.7059,-1.7059,-1.7059,-1.7059,-1.6998,-1.7004,-1.7005,-1.7008,-1.7016,-1.7018,-1.7027,-1.7032,-1.7035,-1.7035,-1.7041,-1.7048,-1.705,-1.7051,-1.7053,-1.704,-1.704,-1.704,-1.704,-1.6987,-1.699,-1.6993,-1.6998,-1.7003,-1.7012,-1.7013,-1.702,-1.7027,-1.7029,-1.7032,-1.7036,-1.7036,-1.7038,-1.7039,-1.7041,-1.7025,-1.7025,-1.7025,-1.6978,-1.6982,-1.6981,-1.6991,-1.6998,-1.7004,-1.7006,-1.701,-1.7019,-1.7025,-1.7031,-1.7032,-1.7037,-1.7038,-1.7042,-1.7044,-1.7047,0,0]}]]